This is the latest recevied weather packets stored in our database for station/object KC5CAM-13. If no packets are shown the sender has not sent any weather packets the latest 1 day(s).
| Time | Temp. | Humidity | Pressure | Rain* | Wind** | Luminosity | Snow |
|---|---|---|---|---|---|---|---|
| 1777994945 | 25° C | 77% | 1005 hPa | 0 mm | 2.24 m/s, 113° | 420 W/m² | - |
| 1777994642 | 25° C | 76% | 1005.1 hPa | 0 mm | 4.02 m/s, 184° | 285 W/m² | - |
| 1777994341 | 24.44° C | 78% | 1004.7 hPa | 0 mm | 3.58 m/s, 164° | 271 W/m² | - |
| 1777994038 | 24.44° C | 78% | 1004.9 hPa | 0 mm | 2.24 m/s, 161° | 246 W/m² | - |
| 1777993735 | 23.89° C | 79% | 1005 hPa | 0 mm | 2.68 m/s, 145° | 210 W/m² | - |
| 1777993433 | 23.89° C | 80% | 1005.2 hPa | 0 mm | 2.24 m/s, 170° | 190 W/m² | - |
| 1777993132 | 23.89° C | 80% | 1005.2 hPa | 0 mm | 2.24 m/s, 198° | 188 W/m² | - |
| 1777992830 | 23.89° C | 80% | 1005.2 hPa | 0 mm | 3.58 m/s, 240° | 190 W/m² | - |
| 1777992528 | 23.89° C | 81% | 1005 hPa | 0 mm | 3.58 m/s, 191° | 177 W/m² | - |
| 1777992227 | 23.33° C | 81% | 1005 hPa | 0 mm | 1.34 m/s, 193° | 170 W/m² | - |
| 1777991923 | 23.33° C | 82% | 1005 hPa | 0 mm | 2.24 m/s, 114° | 153 W/m² | - |
| 1777991621 | 23.33° C | 82% | 1005.1 hPa | 0 mm | 0.89 m/s, 115° | 144 W/m² | - |
| 1777991318 | 23.33° C | 82% | 1004.8 hPa | 0 mm | 2.24 m/s, 121° | 165 W/m² | - |
| 1777991015 | 23.33° C | 82% | 1004.9 hPa | 0 mm | 3.13 m/s, 150° | 148 W/m² | - |
| 1777990712 | 23.33° C | 83% | 1005.1 hPa | 0 mm | 2.24 m/s, 319° | 131 W/m² | - |
| 1777990409 | 22.78° C | 83% | 1004.7 hPa | 0 mm | 1.34 m/s, 133° | 118 W/m² | - |
| 1777990106 | 23.33° C | 83% | 1004.5 hPa | 0 mm | 2.68 m/s, 160° | 130 W/m² | - |
| 1777989802 | 23.33° C | 83% | 1004.7 hPa | 0 mm | 1.79 m/s, 140° | 127 W/m² | - |
| 1777989500 | 22.78° C | 82% | 1004.8 hPa | 0 mm | 2.68 m/s, 150° | 134 W/m² | - |
| 1777989196 | 22.78° C | 83% | 1004.8 hPa | 0 mm | 3.58 m/s, 244° | 120 W/m² | - |
| 1777988892 | 22.78° C | 84% | 1004.7 hPa | 0 mm | 1.34 m/s, 169° | 100 W/m² | - |
| 1777988589 | 22.78° C | 84% | 1004.8 hPa | 0 mm | 1.79 m/s, 266° | 93 W/m² | - |
| 1777988286 | 22.22° C | 84% | 1004.8 hPa | 0 mm | 1.79 m/s, 137° | 95 W/m² | - |
| 1777987983 | 22.22° C | 85% | 1004.4 hPa | 0 mm | 1.34 m/s, 216° | 78 W/m² | - |
| 1777987678 | 22.22° C | 85% | 1004.3 hPa | 0 mm | 3.13 m/s, 211° | 69 W/m² | - |
* Rain latest hour (hover to see other rain measurements)
** Current wind speed in m/s (hover to see current wind gust speed)